When you browse on this site, cookies collect data to enhance your experience and personalize the content and advertising you see.
Visit our Privacy Policy to learn more. By continuing to use the site, you agree to this use of cookies and data.
  • In Austria
  • List of Countries
  • For 7 days
  • Water Temperature
  • Weather Map
  • News
  • Weather Widgets
  • user-avatar
    Login

    Hourly Weather Cardonal

    Today, 26 January, Sunday

    Time Temperature Precipitation Wind Pressure Humidity
    00:00 +11°C° 0 mm 0 mps 598 mmHg 90%
    01:00 +11°C° 0 mm 0 mps 598 mmHg 89%
    02:00 +12°C° 0 mm 1 mps 598 mmHg 89%
    03:00 +12°C° 0 mm 1 mps 598 mmHg 87%
    04:00 +11°C° 0 mm 1 mps 597 mmHg 85%
    05:00 +11°C° 0 mm 1 mps 597 mmHg 84%
    06:00 +12°C° 0 mm 1 mps 598 mmHg 74%
    07:00 +14°C° 0 mm 1 mps 599 mmHg 65%
    08:00 +15°C° 0 mm 1 mps 600 mmHg 56%
    09:00 +18°C° 0 mm 1 mps 601 mmHg 50%
    10:00 +19°C° 0 mm 1 mps 601 mmHg 45%
    11:00 +21°C° 0 mm 1 mps 601 mmHg 39%
    12:00 +20°C° 0.1 mm 2 mps 601 mmHg 40%
    13:00 +20°C° 0.1 mm 3 mps 600 mmHg 41%
    14:00 +21°C° 0.1 mm 3 mps 600 mmHg 41%
    15:00 +19°C° 0.4 mm 3 mps 599 mmHg 49%
    16:00 +18°C° 0.4 mm 3 mps 599 mmHg 56%
    17:00 +17°C° 0.4 mm 2 mps 598 mmHg 63%
    18:00 +16°C° 0.3 mm 2 mps 598 mmHg 69%
    19:00 +15°C° 0.3 mm 2 mps 598 mmHg 75%
    20:00 +14°C° 0.3 mm 1 mps 598 mmHg 81%
    21:00 +13°C° 0.1 mm 1 mps 598 mmHg 82%
    22:00 +13°C° 0.1 mm 1 mps 598 mmHg 83%
    23:00 +12°C° 0.1 mm 1 mps 598 mmHg 84%

    Tomorrow, 27 January, Monday

    Time Temperature Precipitation Wind Pressure Humidity
    00:00 +12°C° 0 mm 1 mps 598 mmHg 84%
    01:00 +12°C° 0 mm 1 mps 597 mmHg 84%
    02:00 +10°C° 0 mm 0 mps 597 mmHg 85%
    03:00 +11°C° 0 mm 1 mps 597 mmHg 86%
    04:00 +11°C° 0 mm 1 mps 597 mmHg 86%
    05:00 +10°C° 0 mm 1 mps 597 mmHg 87%
    06:00 +12°C° 0 mm 1 mps 598 mmHg 82%
    07:00 +13°C° 0 mm 1 mps 598 mmHg 76%
    08:00 +13°C° 0 mm 0 mps 599 mmHg 70%
    09:00 +16°C° 0 mm 1 mps 600 mmHg 62%
    10:00 +19°C° 0 mm 1 mps 600 mmHg 53%
    11:00 +19°C° 0 mm 2 mps 601 mmHg 45%
    12:00 +20°C° 0 mm 2 mps 600 mmHg 39%
    13:00 +21°C° 0 mm 3 mps 600 mmHg 33%
    14:00 +22°C° 0 mm 4 mps 599 mmHg 27%
    15:00 +20°C° 0 mm 3 mps 599 mmHg 36%
    16:00 +19°C° 0 mm 3 mps 598 mmHg 45%
    17:00 +18°C° 0 mm 2 mps 597 mmHg 55%
    18:00 +16°C° 0 mm 2 mps 597 mmHg 66%
    19:00 +15°C° 0 mm 1 mps 597 mmHg 77%
    20:00 +14°C° 0 mm 1 mps 597 mmHg 88%
    21:00 +13°C° 0 mm 1 mps 597 mmHg 88%
    22:00 +13°C° 0 mm 1 mps 597 mmHg 88%
    23:00 +12°C° 0 mm 1 mps 596 mmHg 88%

    Day after tomorrow, 28 January, Tuesday

    Time Temperature Precipitation Wind Pressure Humidity
    00:00 +12°C° 0 mm 1 mps 596 mmHg 83%
    01:00 +12°C° 0 mm 1 mps 596 mmHg 79%
    02:00 +12°C° 0 mm 1 mps 596 mmHg 74%
    03:00 +11°C° 0 mm 1 mps 595 mmHg 69%
    04:00 +11°C° 0 mm 1 mps 595 mmHg 65%
    05:00 +11°C° 0 mm 1 mps 595 mmHg 60%
    06:00 +12°C° 0 mm 1 mps 596 mmHg 55%
    07:00 +14°C° 0 mm 2 mps 597 mmHg 49%
    08:00 +15°C° 0 mm 2 mps 598 mmHg 44%
    09:00 +18°C° 0 mm 1 mps 599 mmHg 37%
    10:00 +20°C° 0 mm 1 mps 599 mmHg 31%
    11:00 +21°C° 0 mm 1 mps 600 mmHg 25%
    12:00 +21°C° 0 mm 2 mps 599 mmHg 24%
    13:00 +21°C° 0 mm 2 mps 598 mmHg 22%
    14:00 +23°C° 0 mm 2 mps 598 mmHg 20%
    15:00 +21°C° 0 mm 2 mps 598 mmHg 29%
    16:00 +19°C° 0 mm 2 mps 598 mmHg 38%
    17:00 +18°C° 0 mm 2 mps 597 mmHg 47%
    18:00 +16°C° 0 mm 2 mps 597 mmHg 62%
    19:00 +15°C° 0 mm 2 mps 597 mmHg 77%
    20:00 +13°C° 0 mm 2 mps 597 mmHg 92%
    21:00 +13°C° 0 mm 2 mps 597 mmHg 93%
    22:00 +12°C° 0 mm 2 mps 598 mmHg 93%
    23:00 +12°C° 0 mm 1 mps 598 mmHg 94%

    29 January, Wednesday

    Time Temperature Precipitation Wind Pressure Humidity
    00:00 +12°C° 0.1 mm 2 mps 598 mmHg 93%
    01:00 +12°C° 0.1 mm 2 mps 598 mmHg 92%
    02:00 +12°C° 0.1 mm 2 mps 598 mmHg 91%
    03:00 +10°C° 0.1 mm 2 mps 598 mmHg 90%
    04:00 +10°C° 0.1 mm 2 mps 598 mmHg 90%
    05:00 +10°C° 0.1 mm 2 mps 598 mmHg 89%
    06:00 +10°C° 0 mm 2 mps 598 mmHg 88%
    07:00 +10°C° 0 mm 2 mps 598 mmHg 86%
    08:00 +9°C° 0 mm 2 mps 599 mmHg 84%
    09:00 +10°C° 0 mm 2 mps 599 mmHg 79%
    10:00 +12°C° 0 mm 2 mps 599 mmHg 73%
    11:00 +14°C° 0 mm 2 mps 599 mmHg 68%
    12:00 +14°C° 0 mm 2 mps 598 mmHg 66%
    13:00 +14°C° 0 mm 3 mps 597 mmHg 63%
    14:00 +16°C° 0 mm 3 mps 597 mmHg 61%
    15:00 +13°C° 0 mm 3 mps 596 mmHg 65%
    16:00 +12°C° 0 mm 3 mps 596 mmHg 70%
    17:00 +12°C° 0 mm 2 mps 595 mmHg 75%
    18:00 +10°C° 0 mm 2 mps 595 mmHg 79%
    19:00 +10°C° 0 mm 1 mps 596 mmHg 83%
    20:00 +9°C° 0 mm 1 mps 596 mmHg 87%
    21:00 +9°C° 0 mm 1 mps 596 mmHg 88%
    22:00 +9°C° 0 mm 1 mps 596 mmHg 88%
    23:00 +9°C° 0 mm 1 mps 595 mmHg 89%

    30 January, Thursday

    Time Temperature Precipitation Wind Pressure Humidity
    00:00 +9°C° 0 mm 1 mps 595 mmHg 87%
    01:00 +9°C° 0 mm 1 mps 595 mmHg 85%
    02:00 +9°C° 0 mm 1 mps 594 mmHg 83%
    03:00 +9°C° 0 mm 1 mps 594 mmHg 79%
    04:00 +9°C° 0 mm 1 mps 594 mmHg 75%
    05:00 +9°C° 0 mm 1 mps 594 mmHg 70%
    06:00 +11°C° 0 mm 1 mps 595 mmHg 64%
    07:00 +12°C° 0 mm 2 mps 596 mmHg 57%
    08:00 +14°C° 0 mm 2 mps 597 mmHg 50%
    09:00 +16°C° 0 mm 3 mps 598 mmHg 41%
    10:00 +19°C° 0 mm 4 mps 599 mmHg 31%
    11:00 +21°C° 0 mm 5 mps 599 mmHg 21%
    12:00 +22°C° 0 mm 6 mps 599 mmHg 19%
    13:00 +22°C° 0 mm 7 mps 598 mmHg 18%
    14:00 +23°C° 0 mm 7 mps 598 mmHg 16%
    15:00 +22°C° 0 mm 7 mps 597 mmHg 20%
    16:00 +20°C° 0 mm 6 mps 597 mmHg 24%
    17:00 +17°C° 0 mm 5 mps 596 mmHg 28%
    18:00 +16°C° 0 mm 5 mps 597 mmHg 29%
    19:00 +15°C° 0 mm 4 mps 597 mmHg 29%
    20:00 +14°C° 0 mm 3 mps 597 mmHg 29%
    21:00 +14°C° 0 mm 3 mps 597 mmHg 30%
    22:00 +14°C° 0 mm 3 mps 597 mmHg 31%
    23:00 +14°C° 0 mm 3 mps 598 mmHg 32%

    31 January, Friday

    Time Temperature Precipitation Wind Pressure Humidity
    00:00 +13°C° 0 mm 3 mps 597 mmHg 36%
    01:00 +13°C° 0 mm 2 mps 597 mmHg 40%
    02:00 +13°C° 0 mm 1 mps 596 mmHg 44%
    03:00 +12°C° 0 mm 1 mps 596 mmHg 47%
    04:00 +12°C° 0 mm 1 mps 597 mmHg 50%
    05:00 +11°C° 0 mm 1 mps 597 mmHg 52%
    06:00 +11°C° 0 mm 1 mps 597 mmHg 55%
    07:00 +12°C° 0 mm 1 mps 598 mmHg 57%
    08:00 +12°C° 0 mm 1 mps 599 mmHg 59%
    09:00 +12°C° 0 mm 2 mps 599 mmHg 60%
    10:00 +12°C° 0 mm 2 mps 599 mmHg 60%
    11:00 +12°C° 0 mm 2 mps 599 mmHg 60%
    12:00 +12°C° 0.7 mm 2 mps 599 mmHg 68%
    13:00 +10°C° 0.7 mm 2 mps 598 mmHg 76%
    14:00 +9°C° 0.7 mm 2 mps 597 mmHg 83%
    15:00 +9°C° 1.4 mm 2 mps 597 mmHg 87%
    16:00 +8°C° 1.4 mm 2 mps 598 mmHg 90%
    17:00 +8°C° 1.4 mm 2 mps 598 mmHg 93%
    18:00 +8°C° 1.7 mm 2 mps 598 mmHg 94%
    19:00 +7°C° 1.7 mm 2 mps 599 mmHg 94%
    20:00 +7°C° 1.7 mm 2 mps 599 mmHg 94%
    21:00 +7°C° 1.1 mm 2 mps 599 mmHg 94%
    22:00 +7°C° 1.1 mm 2 mps 599 mmHg 95%
    23:00 +7°C° 1.1 mm 2 mps 600 mmHg 95%
    Show more